TimeCDT,TemperatureF,Dew PointF,Humidity,Sea Level PressureIn,VisibilityMPH,Wind Direction,Wind SpeedMPH,Gust SpeedMPH,PrecipitationIn,Events,Conditions,WindDirDegrees,DateUTC
12:56 AM,57.9,55.0,90,30.23,8.0,Calm,Calm,-,N/A,,Clear,0,2012-10-11 05:56:00
1:56 AM,55.9,54.0,93,30.22,6.0,Calm,Calm,-,N/A,,Clear,0,2012-10-11 06:56:00
2:56 AM,55.0,53.1,93,30.22,7.0,Calm,Calm,-,N/A,,Clear,0,2012-10-11 07:56:00
3:56 AM,54.0,52.0,93,30.22,5.0,Calm,Calm,-,N/A,,Clear,0,2012-10-11 08:56:00
4:56 AM,54.0,51.1,90,30.23,9.0,Calm,Calm,-,N/A,,Clear,0,2012-10-11 09:56:00
5:56 AM,53.1,51.1,93,30.25,8.0,Calm,Calm,-,N/A,,Clear,0,2012-10-11 10:56:00
6:56 AM,52.0,50.0,93,30.27,7.0,Calm,Calm,-,0.01,,Clear,0,2012-10-11 11:56:00
7:56 AM,55.0,52.0,89,30.28,3.0,Calm,Calm,-,N/A,,Clear,0,2012-10-11 12:56:00
8:56 AM,61.0,55.9,83,30.30,10.0,Calm,Calm,-,N/A,,Clear,0,2012-10-11 13:56:00
9:56 AM,64.9,57.0,75,30.31,10.0,Calm,Calm,-,N/A,,Clear,0,2012-10-11 14:56:00
10:56 AM,71.1,59.0,66,30.30,10.0,Calm,Calm,-,N/A,,Clear,0,2012-10-11 15:56:00
11:56 AM,75.0,60.1,60,30.29,10.0,SSE,3.5,-,N/A,,Scattered Clouds,150,2012-10-11 16:56:00
12:56 PM,75.9,61.0,60,30.26,10.0,Calm,Calm,-,N/A,,Mostly Cloudy,0,2012-10-11 17:56:00
1:56 PM,79.0,61.0,54,30.24,10.0,South,3.5,-,N/A,,Clear,170,2012-10-11 18:56:00
2:56 PM,81.0,61.0,50,30.23,10.0,SE,4.6,-,N/A,,Partly Cloudy,130,2012-10-11 19:56:00
3:56 PM,80.1,60.1,50,30.23,10.0,Calm,Calm,-,N/A,,Partly Cloudy,0,2012-10-11 20:56:00
4:56 PM,80.1,61.0,52,30.22,10.0,ENE,3.5,-,N/A,,Partly Cloudy,70,2012-10-11 21:56:00
5:56 PM,75.0,64.9,71,30.22,10.0,Calm,Calm,-,N/A,,Partly Cloudy,0,2012-10-11 22:56:00
6:56 PM,71.1,64.9,81,30.23,10.0,Calm,Calm,-,N/A,,Clear,0,2012-10-11 23:56:00
7:56 PM,68.0,64.0,87,30.24,9.0,Calm,Calm,-,N/A,,Clear,0,2012-10-12 00:56:00
8:56 PM,66.0,63.0,90,30.26,8.0,Calm,Calm,-,N/A,,Clear,0,2012-10-12 01:56:00
9:56 PM,63.0,61.0,93,30.27,7.0,Calm,Calm,-,N/A,,Clear,0,2012-10-12 02:56:00
10:56 PM,64.0,62.1,93,30.27,7.0,Calm,Calm,-,N/A,,Clear,0,2012-10-12 03:56:00
11:56 PM,63.0,61.0,93,30.26,6.0,Calm,Calm,-,N/A,,Clear,0,2012-10-12 04:56:00